Starlink 2071

operational
NORAD ID: 47361 Int'l Des: 2021-005 Owner: SPXS Country: US Constellation: starlink
LEOCIRCULARSTARLINK_TYPE

关于 Starlink 2071

正在加载描述...

实时位置

正在加载3D地球...

即将过境

高度历史

Altitude vs Time

uPlot chart will show altitude changes over time

两行轨道根数

1 47361U 21005N 25350.45571191 .00000445 00000-0 48777-4 0 9997
2 47361 53.0558 45.2697 0001308 93.8614 266.2525 15.06399146270916
Epoch: Dec 16, 2025 • Age: 25 hours

当前状态

高度 550.7 km
速度 7.59 km/s
星下点 -12.57°S, 31.41°W
发射日期 Jan 20, 2021
运行时间 4.9 years
类型 internet

技术详情

分类 Payload
质量 260.00 kg
干质量 248.00 kg
总质量 260.00 kg
长度 0.20 m
直径 2.80 m
跨度 9.00 m
形状 Box + pan
制造商 SPXS
平台类型 Starlink
阶段状态 In Orbit
所有者/国家 SPXS/US

大型星座

Loading constellations...